When you browse on this site, cookies collect data to enhance your experience and personalize the content and advertising you see.
Visit our Privacy Policy to learn more. By continuing to use the site, you agree to this use of cookies and data.
  • In France
  • List of Countries
  • For 7 days
  • Water Temperature
  • Weather Map
  • Weather Widgets
  • user-avatar
    Login

    Hourly Weather Sidi Bu-l-Abbas

    Today, 19 February, Wednesday

    Time Temperature Precipitation Wind Pressure Humidity
    00:00 +11°C° 0 mm 1 mps 727 mmHg 91%
    01:00 +11°C° 0 mm 1 mps 727 mmHg 92%
    02:00 +11°C° 0 mm 1 mps 727 mmHg 93%
    03:00 +11°C° 0 mm 1 mps 726 mmHg 94%
    04:00 +11°C° 0 mm 1 mps 726 mmHg 94%
    05:00 +11°C° 0 mm 1 mps 727 mmHg 95%
    06:00 +11°C° 0 mm 1 mps 727 mmHg 95%
    07:00 +12°C° 0 mm 1 mps 727 mmHg 91%
    08:00 +12°C° 0 mm 1 mps 727 mmHg 87%
    09:00 +13°C° 0 mm 1 mps 728 mmHg 83%
    10:00 +14°C° 0 mm 1 mps 728 mmHg 79%
    11:00 +14°C° 0 mm 1 mps 728 mmHg 74%
    12:00 +15°C° 0 mm 1 mps 728 mmHg 70%
    13:00 +16°C° 0 mm 1 mps 727 mmHg 66%
    14:00 +17°C° 0 mm 2 mps 727 mmHg 61%
    15:00 +18°C° 0 mm 3 mps 726 mmHg 57%
    16:00 +16°C° 0 mm 3 mps 726 mmHg 64%
    17:00 +14°C° 0 mm 3 mps 726 mmHg 71%
    18:00 +13°C° 0 mm 3 mps 726 mmHg 78%
    19:00 +12°C° 0 mm 3 mps 726 mmHg 82%
    20:00 +12°C° 0 mm 2 mps 726 mmHg 87%
    21:00 +10°C° 0 mm 2 mps 726 mmHg 91%
    22:00 +11°C° 0 mm 1 mps 726 mmHg 91%
    23:00 +11°C° 0 mm 1 mps 726 mmHg 91%

    Tomorrow, 20 February, Thursday

    Time Temperature Precipitation Wind Pressure Humidity
    00:00 +11°C° 0 mm 1 mps 725 mmHg 92%
    01:00 +10°C° 0 mm 1 mps 725 mmHg 91%
    02:00 +10°C° 0 mm 1 mps 724 mmHg 90%
    03:00 +10°C° 0 mm 1 mps 724 mmHg 90%
    04:00 +10°C° 0 mm 1 mps 724 mmHg 89%
    05:00 +10°C° 0 mm 1 mps 724 mmHg 89%
    06:00 +10°C° 0 mm 1 mps 723 mmHg 88%
    07:00 +12°C° 0 mm 1 mps 724 mmHg 80%
    08:00 +13°C° 0 mm 1 mps 724 mmHg 73%
    09:00 +15°C° 0 mm 2 mps 724 mmHg 65%
    10:00 +17°C° 0 mm 2 mps 724 mmHg 57%
    11:00 +20°C° 0 mm 1 mps 724 mmHg 50%
    12:00 +21°C° 0 mm 1 mps 724 mmHg 42%
    13:00 +21°C° 0 mm 2 mps 723 mmHg 42%
    14:00 +21°C° 0 mm 2 mps 723 mmHg 41%
    15:00 +21°C° 0 mm 3 mps 722 mmHg 40%
    16:00 +19°C° 0 mm 2 mps 722 mmHg 49%
    17:00 +18°C° 0 mm 2 mps 722 mmHg 58%
    18:00 +16°C° 0 mm 2 mps 722 mmHg 67%
    19:00 +15°C° 0 mm 2 mps 722 mmHg 70%
    20:00 +14°C° 0 mm 1 mps 723 mmHg 73%
    21:00 +14°C° 0 mm 1 mps 723 mmHg 76%
    22:00 +13°C° 0 mm 1 mps 723 mmHg 77%
    23:00 +13°C° 0 mm 1 mps 723 mmHg 79%

    Day after tomorrow, 21 February, Friday

    Time Temperature Precipitation Wind Pressure Humidity
    00:00 +12°C° 0 mm 0 mps 723 mmHg 80%
    01:00 +11°C° 0 mm 0 mps 723 mmHg 80%
    02:00 +11°C° 0 mm 0 mps 723 mmHg 80%
    03:00 +10°C° 0 mm 0 mps 723 mmHg 80%
    04:00 +10°C° 0 mm 0 mps 723 mmHg 81%
    05:00 +11°C° 0 mm 1 mps 724 mmHg 82%
    06:00 +11°C° 0 mm 1 mps 724 mmHg 83%
    13:00 +17°C° 0 mm 3 mps 726 mmHg 68%
    14:00 +17°C° 0 mm 3 mps 726 mmHg 67%
    15:00 +17°C° 0 mm 4 mps 725 mmHg 67%
    16:00 +16°C° 0 mm 3 mps 725 mmHg 73%
    17:00 +14°C° 0 mm 3 mps 726 mmHg 80%
    18:00 +13°C° 0 mm 3 mps 726 mmHg 86%
    19:00 +13°C° 0 mm 2 mps 726 mmHg 90%
    20:00 +12°C° 0 mm 1 mps 726 mmHg 93%
    21:00 +12°C° 0 mm 1 mps 727 mmHg 96%
    22:00 +12°C° 0 mm 1 mps 727 mmHg 95%
    23:00 +12°C° 0 mm 1 mps 727 mmHg 95%

    22 February, Saturday

    Time Temperature Precipitation Wind Pressure Humidity
    00:00 +12°C° 0 mm 1 mps 727 mmHg 94%
    01:00 +12°C° 0 mm 1 mps 727 mmHg 94%
    02:00 +11°C° 0 mm 1 mps 727 mmHg 94%
    03:00 +11°C° 0 mm 1 mps 727 mmHg 94%
    04:00 +11°C° 0 mm 1 mps 727 mmHg 94%
    05:00 +10°C° 0 mm 0 mps 727 mmHg 93%
    06:00 +10°C° 0 mm 0 mps 727 mmHg 93%
    07:00 +11°C° 0 mm 0 mps 728 mmHg 90%
    08:00 +12°C° 0 mm 1 mps 728 mmHg 87%
    09:00 +13°C° 0 mm 1 mps 729 mmHg 84%
    10:00 +15°C° 0 mm 1 mps 729 mmHg 75%
    11:00 +16°C° 0 mm 1 mps 729 mmHg 66%
    12:00 +19°C° 0 mm 1 mps 729 mmHg 57%
    13:00 +19°C° 0 mm 2 mps 729 mmHg 55%
    14:00 +19°C° 0 mm 4 mps 728 mmHg 53%
    15:00 +20°C° 0 mm 5 mps 728 mmHg 52%
    16:00 +18°C° 0 mm 4 mps 728 mmHg 62%
    17:00 +16°C° 0 mm 3 mps 728 mmHg 71%
    18:00 +14°C° 0 mm 3 mps 728 mmHg 81%
    19:00 +14°C° 0 mm 2 mps 728 mmHg 84%
    20:00 +13°C° 0 mm 2 mps 728 mmHg 87%
    21:00 +13°C° 0 mm 1 mps 729 mmHg 90%
    22:00 +12°C° 0 mm 1 mps 729 mmHg 90%
    23:00 +12°C° 0 mm 1 mps 729 mmHg 90%

    23 February, Sunday

    Time Temperature Precipitation Wind Pressure Humidity
    00:00 +12°C° 0 mm 1 mps 729 mmHg 89%
    01:00 +12°C° 0 mm 1 mps 728 mmHg 88%
    02:00 +11°C° 0 mm 1 mps 728 mmHg 87%
    03:00 +11°C° 0 mm 1 mps 728 mmHg 86%
    04:00 +11°C° 0 mm 1 mps 728 mmHg 84%
    05:00 +11°C° 0 mm 1 mps 728 mmHg 81%
    06:00 +10°C° 0 mm 2 mps 728 mmHg 79%
    07:00 +13°C° 0 mm 2 mps 729 mmHg 69%
    08:00 +15°C° 0 mm 2 mps 730 mmHg 60%
    09:00 +17°C° 0 mm 2 mps 730 mmHg 50%
    10:00 +19°C° 0 mm 2 mps 730 mmHg 42%
    11:00 +20°C° 0 mm 2 mps 730 mmHg 34%
    12:00 +23°C° 0 mm 2 mps 730 mmHg 26%
    13:00 +22°C° 0 mm 3 mps 730 mmHg 25%
    14:00 +24°C° 0 mm 3 mps 730 mmHg 23%
    15:00 +24°C° 0 mm 3 mps 729 mmHg 22%
    16:00 +21°C° 0 mm 3 mps 729 mmHg 29%
    17:00 +19°C° 0 mm 3 mps 728 mmHg 36%
    18:00 +17°C° 0 mm 3 mps 728 mmHg 44%
    19:00 +16°C° 0 mm 3 mps 728 mmHg 43%
    20:00 +14°C° 0 mm 3 mps 728 mmHg 42%
    21:00 +14°C° 0 mm 3 mps 729 mmHg 41%
    22:00 +14°C° 0 mm 4 mps 729 mmHg 40%
    23:00 +14°C° 0 mm 4 mps 729 mmHg 39%

    24 February, Monday

    Time Temperature Precipitation Wind Pressure Humidity
    00:00 +13°C° 0 mm 4 mps 729 mmHg 39%
    01:00 +13°C° 0 mm 4 mps 728 mmHg 38%
    02:00 +13°C° 0 mm 4 mps 728 mmHg 38%
    03:00 +12°C° 0 mm 3 mps 728 mmHg 38%
    04:00 +12°C° 0 mm 3 mps 728 mmHg 38%
    05:00 +11°C° 0 mm 3 mps 727 mmHg 39%
    06:00 +11°C° 0 mm 3 mps 727 mmHg 39%
    07:00 +13°C° 0 mm 3 mps 728 mmHg 38%
    08:00 +16°C° 0 mm 3 mps 728 mmHg 36%
    09:00 +18°C° 0 mm 3 mps 729 mmHg 34%
    10:00 +19°C° 0 mm 4 mps 728 mmHg 31%
    11:00 +21°C° 0 mm 4 mps 728 mmHg 29%
    12:00 +22°C° 0 mm 4 mps 728 mmHg 26%
    13:00 +22°C° 0 mm 4 mps 727 mmHg 28%
    14:00 +22°C° 0 mm 3 mps 727 mmHg 29%
    15:00 +22°C° 0 mm 3 mps 726 mmHg 31%
    16:00 +20°C° 0 mm 2 mps 726 mmHg 40%
    17:00 +17°C° 0 mm 2 mps 725 mmHg 49%
    18:00 +15°C° 0 mm 1 mps 725 mmHg 58%
    19:00 +14°C° 0 mm 1 mps 725 mmHg 60%
    20:00 +12°C° 0 mm 0 mps 725 mmHg 63%
    21:00 +12°C° 0 mm 0 mps 725 mmHg 65%
    22:00 +11°C° 0 mm 0 mps 725 mmHg 66%
    23:00 +12°C° 0 mm 1 mps 725 mmHg 67%
    Show more